Epoch 2020 Dec. 17.0 TT = JDT 2459200.5 T 2020 Dec. 21.94037 TT Rudenko q 1.7560368 (2000.0) P Q n 0.03035258 Peri. 202.26579 +0.77527584 -0.62092523 a 10.1782301 Node 197.68536 +0.62158993 +0.78257402 e 0.8274713 Incl. 22.39792 +0.11213086 -0.04505276 P 32.5 From 93 observations 2020 Aug. 19-2021 Jan. 8, mean residual 0".6.
m1 = 17.0 + 5 logΔ + 10.0 log r